Temp
10 10 10 9 9 9 9 8 9 9 9 9 9 9 8 8 9 9 9 8 8 8 8 8 8 7 7 7 7 6 6 6 6 6 6 6 6 6 6 6 6 6 6
10 10 10 9 9 9 8 8 8 9 9 9 9 9 9 9 9 9 9 8 8 8 8 8 8 7 7 7 7 7 7 6 6 6 6 6 6 6 6 5 6 6 6
10 10 10 9 9 9 9 9 8 9 9 9 9 9 9 9 8 8 8 8 8 8 8 8 7 7 7 7 7 7 7 7 7 7 6 6 6 5 6 5 6 6 6
10 10 10 10 9 9 9 9 8 9 9 9 9 9 9 8 8 8 8 8 8 8 7 7 7 7 7 7 7 7 7 7 7 7 6 6 6 6 5 5 5 5 6
10 10 10 10 9 8 9 8 8 8 9 9 9 8 8 8 8 8 8 8 8 8 8 7 7 6 6 6 6 6 7 7 7 7 6 6 6 6 6 5 5 5 5
10 10 9 9 9 8 7 7 8 8 8 8 8 8 8 8 8 7 8 8 8 7 7 7 7 6 6 6 6 6 6 7 7 7 6 6 6 6 6 5 5 5 5
9 9 8 9 8 8 7 7 7 8 8 8 8 8 7 7 7 7 7 7 7 7 7 6 6 6 5 6 6 6 6 6 6 6 6 6 6 6 5 5 5 5 5
9 9 8 8 8 8 7 7 7 7 8 8 7 7 7 7 7 7 7 7 7 7 6 6 6 5 5 5 5 6 6 5 6 6 6 6 6 6 5 5 5 5 5
9 9 8 8 7 7 7 7 7 7 7 7 7 7 7 7 7 7 7 7 7 7 6 6 6 6 5 5 5 5 5 5 5 5 6 6 6 6 6 6 5 5 5
9 8 8 7 7 7 7 7 7 7 7 7 7 7 7 6 6 7 6 6 6 6 6 6 6 6 6 5 5 5 5 5 5 5 6 5 5 6 6 6 6 5 5
9 8 7 7 7 7 7 6 6 6 6 6 6 6 6 6 6 6 6 6 6 6 6 6 6 6 6 6 5 5 5 5 5 5 5 5 5 5 5 6 6 6 6
8 8 7 6 6 6 6 6 6 6 6 6 6 6 6 6 6 5 5 5 5 5 5 5 5 6 6 6 6 6 5 6 5 5 5 5 5 5 5 5 5 6 6
7 7 6 6 6 6 6 6 6 5 5 5 5 5 5 5 5 5 5 5 5 5 5 5 5 5 6 6 6 6 6 6 6 6 6 5 5 5 5 5 5 5 5
7 6 6 5 5 5 5 5 5 5 5 5 5 5 5 5 5 5 4 4 5 4 5 5 5 5 5 5 6 6 6 6 6 6 6 6 6 5 5 5 5 5 5
6 6 5 5 5 5 5 5 5 5 5 4 4 4 4 4 4 4 4 4 4 4 5 5 5 5 5 5 5 6 6 6 6 6 6 6 6 6 6 5 5 5 5
6 5 5 5 5 5 5 5 5 4 4 4 4 4 4 4 4 4 4 4 4 4 4 5 5 5 5 5 5 5 5 6 6 6 6 6 6 6 6 6 5 5 5
5 5 5 5 5 4 4 4 4 4 4 4 3 3 3 3 3 3 3 3 3 3 3 3 4 4 4 5 5 5 5 5 5 5 6 6 6 6 6 6 6 5 6
5 5 4 4 4 4 4 4 4 3 3 3 3 3 3 3 3 3 3 2 2 2 2 3 3 3 4 4 4 4 5 5 5 6 6 6 5 6 6 6 6 6 6
5 4 4 3 3 3 2 3 3 3 3 3 3 2 2 2 2 1 1 1 1 2 2 2 2 3 3 4 4 4 4 4 5 5 5 5 6 6 6 6 6 6 6
4 4 3 2 2 2 2 2 3 2 2 2 2 1 1 1 1 1 1 1 1 1 1 1 1 1 2 3 3 4 4 4 4 5 5 5 5 5 5 5 6 6 6
4 3 2 1 1 1 2 2 2 2 2 1 1 0 0 -0 0 -0 -0 -0 -0 -0 -0 0 0 1 1 2 2 3 3 3 4 4 4 4 5 5 5 5 5 5 6
3 2 1 1 0 1 1 1 1 1 0 0 -0 -1 -1 -0 -1 -1 -1 -1 -1 -1 -1 -1 -0 -0 0 1 2 2 3 3 2 3 3 3 4 4 4 5 5 5 5
1 1 0 0 0 0 0 0 -0 -0 -0 -1 -1 -1 -1 -1 -1 -1 -2 -2 -2 -1 -1 -1 -1 -1 -1 -0 0 1 1 2 2 1 1 1 2 2 3 3 4 5 5
0 -0 -0 -1 -1 -1 -0 -1 -1 -0 -1 -1 -1 -1 -1 -2 -2 -2 -2 -2 -2 -2 -2 -2 -2 -2 -2 -1 -1 -1 -0 0 1 2 -1 -1 -0 0 1 2 2 3 4
-1 -1 -1 -2 -1 -1 -1 -1 -1 -1 -1 -1 -2 -2 -2 -2 -3 -3 -3 -3 -3 -3 -3 -3 -3 -3 -3 -2 -2 -2 -2 -2 -2 -1 -0 -1 -3 -2 -0 0 0 2 2
-2 -2 -2 -2 -2 -2 -3 -1 -2 -2 -2 -2 -2 -2 -3 -3 -3 -3 -3 -3 -3 -3 -3 -3 -3 -3 -3 -4 -3 -3 -3 -4 -5 -5 -4 -3 -3 -3 -3 -2 -1 -0 1
Height
3162 3164 3164 3165 3167 3168 3167 3169 3172 3172 3173 3173 3173 3173 3173 3173 3173 3172 3172 3172 3171 3171 3171 3170 3169 3169 3168 3167 3166 3166 3166 3165 3165 3165 3164 3163 3164 3164 3164 3164 3165 3165 3165
3161 3163 3165 3165 3165 3166 3168 3169 3172 3172 3173 3172 3172 3172 3172 3172 3172 3171 3170 3170 3170 3169 3169 3168 3167 3167 3166 3166 3165 3164 3164 3164 3163 3163 3163 3163 3162 3162 3163 3164 3164 3164 3164
3158 3161 3162 3163 3163 3165 3167 3167 3169 3171 3171 3171 3171 3171 3171 3171 3171 3170 3169 3169 3168 3168 3168 3167 3166 3165 3164 3163 3163 3163 3162 3162 3162 3161 3161 3161 3161 3161 3161 3161 3162 3162 3163
3155 3158 3160 3162 3163 3165 3164 3166 3167 3169 3170 3169 3169 3169 3169 3169 3169 3168 3167 3167 3166 3165 3165 3165 3164 3163 3162 3161 3161 3160 3161 3160 3159 3160 3159 3159 3159 3159 3159 3159 3160 3160 3161
3154 3156 3159 3161 3162 3163 3163 3165 3167 3168 3169 3168 3168 3167 3166 3166 3166 3165 3164 3163 3163 3162 3161 3161 3161 3160 3160 3158 3158 3158 3158 3158 3157 3157 3157 3157 3157 3157 3158 3157 3158 3159 3159
3152 3155 3157 3160 3161 3162 3163 3164 3166 3166 3167 3166 3166 3166 3165 3165 3164 3163 3162 3161 3160 3159 3157 3157 3157 3157 3156 3155 3155 3156 3155 3155 3156 3155 3154 3154 3155 3155 3156 3156 3155 3155 3156
3152 3153 3155 3157 3156 3158 3160 3161 3163 3164 3164 3164 3164 3163 3162 3162 3161 3161 3160 3158 3156 3155 3154 3153 3153 3153 3152 3151 3151 3151 3152 3152 3152 3153 3152 3152 3152 3153 3153 3154 3154 3153 3153
3148 3150 3152 3154 3154 3156 3157 3159 3161 3162 3162 3162 3162 3161 3160 3160 3159 3158 3155 3154 3152 3151 3150 3149 3148 3148 3148 3147 3147 3148 3147 3148 3149 3149 3149 3149 3149 3150 3150 3150 3150 3151 3151
3144 3146 3147 3148 3151 3153 3155 3157 3158 3159 3160 3160 3159 3158 3158 3157 3155 3153 3152 3150 3148 3147 3146 3145 3143 3142 3142 3142 3142 3143 3144 3143 3144 3145 3145 3145 3145 3146 3147 3147 3147 3148 3149
3143 3143 3144 3147 3148 3151 3153 3154 3155 3156 3157 3156 3156 3156 3154 3153 3152 3149 3147 3146 3145 3142 3141 3140 3139 3138 3137 3136 3136 3137 3139 3139 3138 3140 3140 3141 3141 3141 3142 3143 3143 3144 3145
3139 3141 3143 3145 3147 3149 3150 3152 3153 3153 3152 3152 3152 3150 3149 3148 3146 3145 3144 3142 3139 3138 3136 3135 3134 3134 3133 3132 3130 3130 3131 3132 3133 3134 3134 3136 3136 3136 3136 3138 3138 3139 3140
3137 3138 3140 3143 3144 3146 3147 3148 3148 3148 3149 3148 3147 3146 3144 3143 3141 3139 3137 3136 3135 3134 3131 3130 3129 3128 3127 3126 3125 3125 3124 3124 3126 3127 3128 3129 3129 3129 3130 3131 3132 3134 3135
3134 3135 3137 3139 3141 3142 3143 3144 3145 3145 3145 3144 3143 3142 3140 3138 3136 3135 3133 3131 3129 3127 3126 3124 3123 3122 3120 3120 3119 3118 3118 3117 3118 3119 3121 3122 3122 3124 3124 3125 3125 3127 3129
3132 3133 3134 3136 3137 3138 3140 3141 3141 3140 3140 3139 3137 3136 3135 3133 3131 3129 3127 3126 3124 3122 3120 3118 3117 3116 3115 3113 3112 3112 3110 3110 3110 3111 3112 3113 3114 3115 3117 3117 3118 3120 3121
3129 3130 3131 3133 3134 3135 3136 3136 3136 3135 3134 3133 3132 3130 3128 3126 3125 3123 3121 3118 3117 3115 3113 3111 3110 3109 3107 3106 3105 3103 3103 3103 3102 3102 3104 3104 3104 3106 3108 3109 3110 3111 3113
3126 3127 3128 3128 3129 3130 3130 3130 3129 3129 3128 3127 3125 3124 3122 3120 3119 3116 3114 3111 3108 3106 3104 3103 3101 3100 3099 3098 3096 3094 3093 3093 3094 3093 3093 3094 3095 3096 3098 3100 3102 3103 3104
3124 3124 3124 3124 3125 3124 3124 3124 3123 3123 3122 3121 3120 3119 3117 3115 3112 3110 3107 3105 3102 3099 3096 3093 3090 3089 3087 3086 3085 3085 3084 3084 3083 3082 3082 3084 3084 3086 3087 3089 3092 3093 3094
3119 3119 3120 3120 3119 3119 3119 3118 3118 3118 3117 3116 3115 3113 3112 3109 3107 3104 3101 3098 3095 3092 3089 3087 3083 3080 3078 3075 3074 3074 3073 3073 3072 3071 3071 3071 3073 3074 3075 3077 3080 3083 3084
3113 3114 3114 3114 3114 3114 3114 3114 3113 3112 3112 3111 3109 3107 3105 3103 3101 3098 3096 3093 3090 3086 3082 3079 3075 3072 3068 3066 3064 3063 3061 3060 3060 3059 3059 3060 3061 3062 3063 3065 3067 3070 3074
3109 3110 3110 3109 3110 3110 3109 3109 3108 3108 3107 3105 3104 3101 3099 3097 3095 3093 3091 3087 3084 3081 3077 3074 3070 3064 3059 3056 3053 3052 3050 3047 3047 3045 3045 3046 3048 3049 3051 3053 3054 3057 3060
3105 3105 3105 3105 3105 3106 3105 3104 3103 3102 3101 3099 3097 3095 3094 3092 3090 3088 3085 3082 3078 3075 3071 3068 3065 3059 3053 3048 3044 3042 3038 3036 3033 3033 3032 3032 3034 3035 3037 3039 3042 3044 3048
3100 3100 3100 3100 3100 3100 3100 3100 3099 3097 3096 3095 3093 3092 3090 3088 3086 3083 3080 3076 3073 3070 3067 3063 3059 3055 3048 3041 3037 3032 3030 3026 3024 3020 3019 3020 3021 3022 3024 3027 3029 3031 3034
3094 3095 3096 3096 3096 3096 3095 3095 3094 3092 3091 3090 3089 3088 3085 3083 3080 3077 3075 3071 3068 3064 3061 3057 3053 3048 3044 3036 3028 3023 3018 3016 3012 3011 3008 3008 3009 3010 3012 3014 3017 3019 3021
3089 3091 3091 3092 3091 3090 3090 3089 3088 3088 3087 3086 3084 3082 3081 3078 3075 3073 3070 3067 3063 3059 3056 3052 3048 3044 3039 3034 3027 3019 3012 3005 3002 3002 3002 2998 2998 3000 3001 3002 3005 3007 3009
3085 3087 3087 3086 3087 3085 3084 3084 3084 3084 3082 3081 3079 3079 3076 3075 3071 3067 3064 3061 3058 3055 3052 3048 3044 3041 3036 3031 3025 3017 3008 3000 2994 2991 2989 2992 2991 2990 2991 2993 2995 2996 2998
3079 3082 3083 3082 3082 3080 3081 3081 3079 3079 3079 3078 3076 3074 3070 3068 3065 3062 3059 3057 3054 3051 3048 3044 3041 3038 3033 3028 3022 3015 3007 3000 2992 2986 2984 2984 2984 2983 2984 2984 2985 2987 2989
Wind_Speed
26 23 21 17 14 11 11 10 9 7 6 5 5 5 6 6 8 9 11 13 12 12 11 11 11 11 11 11 10 12 12 12 11 10 10 10 9 8 8 8 8 7 5
25 24 21 18 16 15 12 10 10 8 7 6 5 6 6 6 8 9 10 12 13 15 15 14 13 13 13 12 12 10 11 12 11 10 10 10 9 8 8 7 6 6 6
24 25 24 22 20 17 12 11 14 11 9 7 7 5 4 6 7 8 10 11 13 14 15 17 16 15 15 14 13 13 11 11 11 11 10 9 9 9 9 8 6 7 6
23 26 25 23 20 17 14 15 16 13 11 9 8 6 7 7 8 9 11 13 15 15 15 16 18 18 17 15 14 14 15 12 10 11 10 10 9 10 9 9 8 8 8
18 25 24 23 21 17 16 17 17 13 13 10 10 9 9 10 11 12 13 15 17 17 17 18 19 19 18 18 17 16 15 16 13 12 11 10 10 11 11 10 9 8 8
20 23 22 23 19 21 18 16 17 13 14 12 11 11 12 15 16 17 18 18 19 19 19 19 20 22 21 20 20 19 18 16 17 15 13 12 11 12 12 11 12 10 9
21 19 20 24 23 26 18 16 17 16 15 14 14 13 15 17 18 19 21 22 22 21 21 21 22 24 24 24 22 21 20 18 18 18 16 15 13 14 14 14 15 14 12
18 23 20 25 27 25 19 18 19 17 17 17 17 16 17 18 19 20 21 23 23 23 22 22 22 23 25 26 25 24 24 21 21 20 19 18 17 15 15 16 15 16 16
16 19 24 26 27 24 19 21 19 18 18 19 18 19 20 20 21 21 22 23 23 22 22 22 22 23 25 26 26 27 28 26 24 23 22 21 20 19 17 17 18 18 17
14 17 19 18 20 20 21 20 17 19 19 20 20 22 22 22 24 25 25 24 24 23 23 22 22 22 24 25 27 27 29 30 29 28 27 25 24 23 20 18 20 19 20
12 15 14 16 19 19 16 16 18 19 20 21 22 23 23 25 26 27 28 27 25 25 24 24 24 23 24 26 26 28 28 31 32 32 31 29 28 28 26 24 22 21 21
12 15 16 18 17 15 16 18 19 21 23 23 24 25 26 28 29 29 28 27 28 28 28 27 27 27 26 26 27 29 30 31 33 33 32 33 34 32 31 29 27 25 24
13 15 16 16 16 17 18 20 22 24 24 25 26 28 29 29 29 29 31 31 31 31 31 31 31 31 30 29 29 29 32 33 33 34 36 34 35 35 35 34 33 30 27
11 13 14 15 16 17 19 21 22 24 25 27 28 29 28 29 30 30 31 32 32 33 33 33 33 33 35 34 34 33 33 34 36 35 34 35 37 38 38 37 36 36 34
12 11 12 13 14 17 19 20 22 24 25 26 26 26 27 28 29 29 30 31 32 34 35 36 37 37 37 38 38 38 37 37 36 36 38 36 36 37 39 42 41 40 38
13 13 14 14 16 16 17 18 19 21 22 22 23 24 25 26 28 29 30 32 34 35 37 39 40 40 40 40 40 41 40 40 40 39 38 38 39 39 39 39 41 44 43
15 16 16 17 17 17 17 17 17 17 18 19 21 22 23 25 27 28 30 31 32 33 35 36 38 40 41 42 43 42 42 42 42 43 43 41 40 40 41 41 41 43 45
19 20 19 18 17 17 16 16 16 16 17 18 20 22 24 26 27 27 28 28 30 32 33 35 36 37 39 41 41 42 43 44 45 44 45 46 44 43 42 42 43 43 45
21 22 21 18 16 14 14 13 15 15 17 19 21 22 24 24 24 24 26 27 28 29 31 32 34 36 37 38 40 40 41 43 45 46 46 47 47 46 45 44 45 45 46
22 22 21 17 13 13 13 14 16 17 19 20 22 22 22 23 24 25 25 25 26 29 30 31 33 36 38 38 39 40 40 41 43 45 46 46 47 48 48 47 47 47 47
24 23 21 16 13 11 11 13 14 17 20 21 22 21 22 22 21 22 24 25 26 27 28 29 30 32 35 37 37 37 39 40 42 43 45 46 46 47 49 49 48 48 49
26 24 20 16 12 13 14 15 18 20 21 22 21 19 19 21 22 23 24 24 25 27 28 29 29 30 33 34 35 36 34 36 36 39 42 44 43 44 46 48 49 49 49
26 24 18 15 14 13 14 18 22 22 23 23 19 19 21 23 24 25 26 25 25 25 27 28 29 30 31 35 36 35 35 33 33 32 36 37 38 40 42 44 46 48 49
27 20 17 16 14 15 17 24 27 30 25 20 19 22 24 25 26 26 25 25 24 24 25 25 27 28 29 30 34 35 34 34 33 32 24 31 34 35 37 39 41 44 47
24 20 17 13 15 19 22 22 23 25 19 18 20 23 24 28 26 24 24 25 24 24 23 23 24 25 26 28 31 34 34 32 29 29 27 21 22 30 34 35 37 40 42
19 15 14 14 16 21 18 20 18 17 19 20 22 24 27 26 24 24 24 23 23 23 22 22 22 22 24 26 30 34 34 32 23 21 19 16 13 18 23 26 30 34 37
Wind_Direction
196 189 186 186 190 189 186 197 209 208 222 250 270 287 300 319 330 333 333 328 319 312 308 307 306 304 299 293 293 295 296 292 287 279 268 261 256 254 249 249 245 237 234
201 196 188 189 193 201 207 207 233 233 249 261 270 292 311 331 339 341 339 333 325 313 303 297 295 295 296 296 295 294 298 300 295 285 272 265 257 250 245 250 246 233 229
203 199 193 196 199 206 215 218 233 239 248 256 263 272 293 306 320 328 326 324 319 309 298 292 288 288 292 295 298 298 293 294 296 291 282 272 263 257 249 239 243 244 244
204 201 200 200 203 207 213 239 235 240 252 251 253 243 267 282 300 311 316 320 317 311 298 289 285 284 284 285 286 290 294 289 288 286 284 278 263 253 248 247 236 238 246
205 201 201 204 208 216 242 236 241 244 255 256 249 263 272 287 296 303 307 311 307 303 297 287 278 278 279 283 283 283 285 288 283 278 278 273 265 259 251 246 239 242 240
204 204 211 215 231 226 252 225 238 246 253 255 261 272 287 296 301 306 307 306 303 299 291 283 274 269 268 272 278 281 282 282 283 278 277 275 265 255 254 248 235 246 248
207 218 222 219 229 228 244 233 241 244 249 251 258 271 281 288 297 302 306 308 305 300 292 283 273 267 265 265 265 269 274 275 277 278 275 273 269 264 252 248 244 245 245
223 225 228 231 231 231 235 236 240 246 250 255 264 273 280 286 292 297 302 305 304 301 293 285 276 270 266 265 264 264 265 267 270 273 273 272 269 263 258 250 247 243 253
237 227 216 222 224 237 237 234 238 249 256 263 272 277 280 285 290 296 300 302 300 298 295 291 284 277 270 265 262 261 263 263 262 265 266 267 268 265 259 261 256 249 248
242 235 229 227 229 227 226 236 246 255 264 272 276 278 285 292 296 300 300 299 298 294 293 294 291 285 278 270 266 263 261 261 259 260 261 261 262 263 262 254 257 253 250
233 241 241 235 231 234 241 248 256 264 269 272 276 282 289 293 296 298 299 297 295 294 292 292 291 292 287 281 274 266 261 261 261 259 258 258 258 259 260 260 254 252 248
240 235 235 237 242 246 249 254 261 266 270 274 280 286 289 292 294 294 293 294 294 293 291 291 292 292 291 288 283 277 268 261 258 257 258 257 255 255 258 260 259 255 251
228 228 236 241 246 253 260 265 270 274 276 279 282 286 289 291 293 295 296 296 294 292 291 290 292 292 290 287 285 281 278 271 264 259 256 254 255 256 256 256 259 260 256
217 218 226 236 246 255 262 267 270 273 276 279 282 285 288 292 294 295 295 296 294 293 292 291 291 291 292 289 286 282 277 275 272 267 261 257 254 252 253 253 254 256 258
231 225 229 240 251 259 265 270 274 277 279 282 285 288 291 294 296 297 297 297 297 296 294 292 292 290 288 288 286 282 278 274 271 269 267 261 258 256 252 250 250 251 253
228 227 235 244 253 262 270 279 283 285 287 289 291 294 296 297 295 295 295 294 293 293 292 291 290 289 288 286 282 281 278 276 273 269 265 262 260 258 257 253 250 249 250
228 231 240 249 258 266 274 280 286 290 291 292 294 296 297 298 298 299 299 299 298 296 295 293 291 289 287 284 282 279 277 275 273 272 268 263 259 257 256 255 252 249 247
235 240 246 257 266 273 277 282 287 289 291 294 298 299 301 300 300 301 302 303 303 303 302 300 298 294 290 287 283 279 277 273 269 267 267 266 263 258 255 253 253 250 248
249 253 260 269 277 282 286 291 294 295 299 301 302 303 302 302 304 307 307 306 306 306 306 306 304 301 296 292 288 284 279 274 271 269 265 263 263 260 256 253 252 250 249
257 262 271 279 285 289 295 294 293 297 301 303 303 304 304 305 306 307 308 311 313 312 312 311 310 308 304 301 295 289 283 278 273 269 266 265 262 259 257 253 250 250 248
265 269 273 280 284 291 296 295 301 306 305 306 307 305 303 305 306 308 310 312 313 313 313 314 315 314 310 307 302 296 291 283 276 271 267 264 262 260 257 255 252 249 248
263 267 270 274 273 280 287 304 310 311 310 309 304 304 306 309 311 313 312 313 314 315 316 318 318 321 321 317 312 305 294 284 278 271 267 263 260 258 256 255 254 251 248
262 262 265 264 267 281 294 315 318 316 311 308 305 307 313 315 314 314 312 314 315 315 316 318 321 325 331 331 328 322 310 293 282 272 266 263 258 256 253 252 251 251 251
255 258 265 262 274 287 297 311 310 304 300 301 302 310 310 309 310 309 312 316 318 320 322 323 324 328 334 337 339 338 326 310 295 280 264 260 258 256 253 252 250 249 249
256 264 259 276 285 297 307 299 293 293 295 296 299 304 304 308 309 310 314 315 317 319 319 322 325 327 336 342 345 347 344 329 312 298 289 262 257 256 254 253 252 251 250
250 251 263 297 298 301 301 296 294 292 295 297 300 300 305 308 307 309 311 315 316 317 320 320 321 327 337 346 354 359 358 349 334 321 310 299 274 254 252 251 252 253 253